Kezdőlap
METAR-TAF:

METAR-TAF

Repülőterek :

South St. Paul Municipal Airport (Richard E. Fleming Field)

South St. Paul, Minnesota, Amerikai Egyesült Államok

földrajzi szélesség: 44-51-26N, földrajzi hosszúság: 093-01-58W, magasság: 250 m

Jelenlegi meteorológiai megfigyelések

A jelentés 26 perccel ezelõtt készült, 11:35 UTC
Kelet-északkeleti szél 3 kt
Hőmérséklet 11°C
Páratartalom 66%
Légköri nyomás 1017 hPa
Látótávolság: 16.1 km
Derült ég

METAR: KSGS 171135Z AUTO 07003KT 10SM CLR 11/05 A3003 RMK AO2 T01080046

Idő: 07:01 (12:01 UTC)


TAF: hiányzik

Meteorológiai megfigyelések és előrejelzések több, mint 4000 repülőtéren (METAR és TAF jelentéseket).

A térképen piros és sárga pontok jelzik az elérhető meteorológiai állomásokat.

Mozgassa az egeret a pont fölött, hogy megjelenjen az állomás neve.

Azután kattintson az időjárási megfigyelések és előrejelzések megtekintéséhez.

A térkép megváltoztatása: kattintson a fekete keresztel jelölt zöld gombra ráközelítéshez, a vonallal jelölt zöld gombra távolításhoz, vagy a zöld nyilakra a szomszédos térképek eléréséhez.


METAR-TAF: